This is the latest recevied weather packets stored in our database for station/object WD4IXD. If no packets are shown the sender has not sent any weather packets the latest 1 day(s).
| Time | Temp. | Humidity | Pressure | Rain* | Wind** | Luminosity | Snow |
|---|---|---|---|---|---|---|---|
| 1778019615 | 1.67° C | 94% | 1013.5 hPa | 1.02 mm | 0 m/s | 21 W/m² | - |
| 1778019303 | 1.67° C | 94% | 1013.4 hPa | 1.02 mm | 0 m/s | 28 W/m² | - |
| 1778019015 | 1.67° C | 94% | 1013.3 hPa | 1.27 mm | 0 m/s | 40 W/m² | - |
| 1778018715 | 1.67° C | 94% | 1013.3 hPa | 1.52 mm | 0 m/s | 49 W/m² | - |
| 1778018415 | 1.67° C | 94% | 1013.3 hPa | 1.78 mm | 0 m/s | 53 W/m² | - |
| 1778018103 | 1.67° C | 94% | 1013.3 hPa | 2.03 mm | 0 m/s | 65 W/m² | - |
| 1778017815 | 1.67° C | 94% | 1013.4 hPa | 2.03 mm | 0.45 m/s, 165° | 63 W/m² | - |
| 1778017504 | 1.67° C | 94% | 1013.3 hPa | 2.03 mm | 0.89 m/s, 165° | 35 W/m² | - |
| 1778017215 | 1.67° C | 93% | 1013.3 hPa | 2.03 mm | 1.34 m/s, 165° | 25 W/m² | - |
| 1778016904 | 1.67° C | 93% | 1013.6 hPa | 2.29 mm | 1.79 m/s, 165° | 19 W/m² | - |
| 1778016615 | 1.67° C | 93% | 1013.6 hPa | 2.29 mm | 1.34 m/s, 170° | 32 W/m² | - |
| 1778016303 | 1.67° C | 93% | 1013.7 hPa | 2.29 mm | 0.89 m/s, 166° | 35 W/m² | - |
| 1778016015 | 2.22° C | 93% | 1013.6 hPa | 2.29 mm | 2.24 m/s, 168° | 33 W/m² | - |
| 1778015703 | 2.22° C | 93% | 1013.5 hPa | 2.54 mm | 2.24 m/s, 156° | 47 W/m² | - |
| 1778015415 | 2.78° C | 93% | 1013.7 hPa | 2.29 mm | 1.34 m/s, 158° | 58 W/m² | - |
| 1778015104 | 2.78° C | 93% | 1013.8 hPa | 2.03 mm | 2.24 m/s, 159° | 58 W/m² | - |
| 1778014804 | 2.78° C | 93% | 1013.9 hPa | 1.78 mm | 2.24 m/s, 157° | 46 W/m² | - |
| 1778014514 | 3.33° C | 93% | 1014 hPa | 1.52 mm | 1.79 m/s, 166° | 60 W/m² | - |
| 1778014204 | 3.33° C | 93% | 1014 hPa | 1.52 mm | 0.89 m/s, 152° | 60 W/m² | - |
| 1778013915 | 3.33° C | 93% | 1014 hPa | 1.27 mm | 0.89 m/s, 157° | 63 W/m² | - |
| 1778013615 | 3.89° C | 93% | 1014.2 hPa | 1.02 mm | 0.89 m/s, 157° | 56 W/m² | - |
| 1778013304 | 3.89° C | 93% | 1014.2 hPa | 1.02 mm | 0.89 m/s, 112° | 65 W/m² | - |
| 1778013015 | 3.89° C | 93% | 1014.3 hPa | 1.27 mm | 0.45 m/s, 112° | 62 W/m² | - |
| 1778012704 | 3.89° C | 93% | 1014.2 hPa | 1.27 mm | 0.89 m/s, 112° | 67 W/m² | - |
| 1778012415 | 3.89° C | 93% | 1014.2 hPa | 1.27 mm | 0.89 m/s, 112° | 79 W/m² | - |
* Rain latest hour (hover to see other rain measurements)
** Current wind speed in m/s (hover to see current wind gust speed)